Home   Weather   Kortrijk   Past weeks

Flag for Belgium Past Weather in Kortrijk, Belgium — Yesterday and Last 2 Weeks

Now
72 °F

Partly sunny.


Feels Like: 77 °F
Forecast: 53 / 75 °F
Wind: 10 mph from Northwest

Location: Lille Airport

Current Time: May 23, 2017 at 4:42:36 pm

Latest Report: May 23, 2017 at 4:00 pm


Visibility: N/A

Pressure: 30.15 "Hg

Humidity: 50%

Dew Point: 52 °F

Location of KortrijkLocation

Past Weather in Kortrijk — Graph

°F

Kortrijk Temperature Yesterday

Maximum temperature yesterday: 77 °F (at 4:00 pm)
Minimum temperature yesterday: 52 °F (at 6:00 am)
Average temperature yesterday: 66 °F

High & Low Weather Summary for the Past Weeks

 TemperatureHumidityPressure
High84 °F (May 17, 3:30 pm)100% (May 19, 4:30 am)30.39 "Hg (May 19, 4:30 am)
Low39 °F (May 9, 5:30 am)31% (May 17, 3:30 pm)29.33 "Hg (May 11, 6:30 pm)
Average60 °F67%29.98 "Hg
* Reported May 8 3:00 pm — May 23 3:00 pm, Kortrijk. Weather by CustomWeather, © 2017

Note: Actual official high and low records may vary slightly from our data, if they occured in-between our weather recording intervals... More about our weather records

Advertising

Kortrijk Weather History for the Previous 24 Hours

Scroll right to see more
 ConditionsComfort  
Time TempWeatherWind HumidityBarometerVisibility
3:00 pm
Tue, May 23
72 °FPartly sunny.10 mph53%30.15 "HgN/A
2:30 pm70 °FPartly sunny.8 mph53%30.15 "HgN/A
2:00 pm70 °FScattered clouds.9 mph57%30.15 "HgN/A
1:30 pm68 °FPartly sunny.12 mph60%30.15 "HgN/A
1:00 pm68 °FScattered clouds.12 mph60%30.15 "HgN/A
12:30 pm66 °FPartly sunny.12 mph64%30.15 "HgN/A
12:00 pm68 °FScattered clouds.12 mph64%30.15 "HgN/A
11:30 am66 °FPartly sunny.9 mph64%30.12 "HgN/A
11:00 am66 °FBroken clouds.13 mph64%30.12 "HgN/A
10:30 am64 °FClear.10 mph68%30.09 "Hg6 mi
10:00 am63 °FClear.9 mph73%30.09 "Hg6 mi
9:30 am63 °FPassing clouds.12 mph73%30.09 "Hg6 mi
9:00 am61 °FPassing clouds.12 mph77%30.09 "Hg6 mi
8:30 am59 °FSunny.12 mph82%30.07 "Hg10 mi
8:00 am57 °FPassing clouds.12 mph88%30.07 "Hg6 mi
7:30 am55 °FClear.9 mph88%30.07 "Hg6 mi
7:00 am55 °FClear.6 mph88%30.04 "Hg4 mi
6:30 am55 °FClear.9 mph88%30.04 "Hg6 mi
6:00 am55 °FClear.8 mph82%30.04 "HgN/A
5:30 am57 °FClear.7 mph82%30.04 "HgN/A
5:00 am57 °FClear.7 mph77%30.01 "Hg10 mi
4:30 am59 °FClear.7 mph77%30.01 "Hg10 mi
4:00 am59 °FClear.7 mph77%30.01 "Hg10 mi
3:00 am61 °FClear.1 mph72%29.98 "Hg10 mi
2:30 am59 °FClear.No wind77%29.98 "Hg10 mi
2:00 am59 °FClear.No wind77%29.98 "Hg10 mi
1:30 am61 °FClear.No wind72%29.98 "Hg10 mi
1:00 am61 °FClear.2 mph77%29.98 "Hg10 mi
12:30 am63 °FClear.1 mph68%29.98 "Hg10 mi
12:00 am63 °FClear.No wind68%30.01 "Hg10 mi
11:30 pm
Mon, May 22
64 °FClear.No wind64%30.01 "Hg10 mi
11:00 pm64 °FClear.No wind64%30.01 "Hg10 mi
10:30 pm66 °FClear.No wind60%29.98 "Hg10 mi
10:00 pm68 °FClear.No wind53%29.98 "Hg10 mi
9:30 pm70 °FSunny.2 mph50%29.98 "Hg10 mi
9:00 pm73 °FSunny.2 mph44%29.98 "Hg10 mi
8:30 pm73 °FSunny.3 mph47%29.98 "Hg10 mi
8:00 pm73 °FSunny.5 mph44%29.98 "Hg10 mi
7:30 pm73 °FSunny.6 mph44%29.98 "Hg10 mi
7:00 pm75 °FSunny.8 mph41%29.98 "Hg10 mi
6:30 pm75 °FPassing clouds.9 mph39%29.98 "HgN/A
6:00 pm75 °FSunny.9 mph39%29.98 "Hg10 mi
5:30 pm77 °FPassing clouds.10 mph36%29.98 "HgN/A
5:00 pm77 °FPassing clouds.9 mph36%29.98 "HgN/A
4:30 pm77 °FPassing clouds.9 mph34%29.98 "HgN/A
4:00 pm77 °FPassing clouds.8 mph34%30.01 "HgN/A
Weather by CustomWeather, © 2017

See weather overviewHow to use our weather pages